Tracking 27122 objects as of 25-Mar-2023
HD Live streaming from Space Station
objects crossing your sky now

CZ-2 DEB

Track CZ-2 DEB now!
10-day predictions


NORAD ID: 38662
Int'l Code: 2012-029D
Perigee: 1,095.3 km
Apogee: 1,294.6 km
Inclination: 100.4 °
Period: 109.2 minutes
Semi major axis: 7565 km
RCS: 0.003 m2 (small)
Launch date: May 29, 2012
Source: People's Republic of China (PRC)
Launch site: Taiyaun Space Center, China (TSC)

Note: This is SATELLITE DEBRIS
Your satellite tracking list
Your tracking list is empty




NASA's NSSDC Master Catalog

Two Line Element Set (TLE):
1 38662U 12029D   23083.09244873  .00000201  00000-0  59137-3 0  9993
2 38662 100.4004 192.0986 0131668 187.1230 172.8015 13.19191481517700
Source of the keplerian elements: AFSPC